RH
92 93 93 91 90 90 91 90 88 85 82 81 80 78 76 72 73 73 71 68 66 59 56 55 54 54 56 60 63 64 65 69 75 77 76 70 69 71 73 78 79 73 76
89 91 93 90 89 89 90 89 87 84 81 79 78 78 77 72 72 72 69 67 66 57 56 57 58 58 60 63 66 68 70 72 77 78 76 69 67 68 71 75 80 73 74
87 89 87 89 88 89 89 88 84 81 79 75 74 75 73 70 70 72 70 69 67 60 59 58 58 58 61 66 73 74 77 78 78 76 76 82 74 68 67 68 73 74 75
88 85 82 89 89 90 88 86 81 76 75 75 73 69 70 68 69 72 72 70 69 61 59 58 58 60 65 73 77 75 74 76 77 78 73 75 64 67 67 65 64 64 75
87 81 85 90 90 89 87 84 82 80 79 77 73 68 68 68 67 69 73 71 68 61 59 59 61 66 73 79 79 76 74 72 76 70 86 81 75 62 63 64 65 66 68
87 83 90 91 90 88 86 84 83 80 78 76 73 73 69 68 68 72 74 72 64 62 62 63 65 70 77 79 79 78 72 70 70 79 78 75 69 62 62 65 66 66 68
90 86 83 91 88 87 86 84 83 82 79 76 75 76 75 72 71 76 77 74 70 66 66 66 69 76 76 79 79 78 79 71 66 80 84 80 74 62 62 66 69 69 68
93 89 87 90 90 89 86 86 85 82 79 78 78 78 77 78 79 79 79 79 77 76 76 74 74 74 73 75 78 82 80 67 60 72 76 82 74 62 62 66 71 76 73
98 97 95 92 91 90 90 89 87 82 80 80 80 79 79 81 80 79 79 78 77 76 73 69 70 72 71 72 78 82 75 73 71 76 70 87 73 65 66 70 72 76 77
97 94 97 89 91 90 86 89 86 82 82 81 80 81 81 81 80 80 78 76 74 71 69 66 70 70 70 75 77 81 69 72 70 80 87 91 73 65 70 75 76 75 75
97 96 90 97 93 92 85 81 83 80 79 79 79 80 82 79 77 77 77 75 71 73 73 68 70 76 79 72 80 75 63 63 71 80 91 78 66 63 70 73 71 71 71
96 97 93 96 96 90 68 87 88 74 75 74 72 76 72 75 76 72 79 76 75 73 74 74 81 68 62 60 61 63 57 54 71 79 89 74 62 59 63 66 68 68 68
91 87 90 97 86 86 72 84 83 81 81 77 71 74 79 79 85 86 84 87 82 72 65 62 56 55 54 59 60 63 56 56 67 77 78 71 62 56 59 61 63 65 65
91 85 86 94 88 85 75 80 77 82 92 95 90 85 86 91 87 84 83 83 74 70 64 65 64 58 54 50 52 51 52 55 58 69 81 74 68 52 54 58 61 61 60
89 90 87 84 86 80 81 81 87 92 87 88 88 86 89 90 88 87 80 74 71 66 63 62 61 56 56 51 53 49 49 51 47 60 82 73 70 60 52 58 57 54 54
82 82 84 86 79 76 84 88 88 88 90 95 96 95 90 90 86 80 74 70 70 70 66 64 62 63 63 57 54 50 53 50 48 49 58 75 75 70 61 56 53 50 48
77 78 88 81 83 80 89 85 90 94 94 95 95 92 88 82 82 77 76 72 70 71 66 67 67 68 67 56 51 50 56 52 52 47 52 65 86 74 70 53 47 46 45
78 83 81 72 82 86 88 88 94 92 90 87 87 86 80 77 76 78 70 68 72 73 70 72 73 69 71 65 57 52 57 57 50 48 44 59 87 77 72 61 52 47 47
74 77 79 85 85 90 89 94 95 91 86 85 86 78 70 68 73 76 73 74 73 72 74 68 72 72 72 66 55 56 63 62 58 43 46 49 69 75 73 60 58 53 44
72 77 81 84 91 91 94 96 97 94 88 86 80 72 62 64 71 72 73 72 70 69 70 69 60 64 69 72 49 51 59 61 59 61 56 45 53 54 53 48 49 53 50
81 76 86 90 94 87 93 96 97 91 89 82 70 64 65 66 64 68 73 70 71 69 72 68 69 67 68 74 65 65 65 62 59 60 57 54 50 50 48 51 52 56 53
79 80 88 86 91 79 76 96 90 84 76 70 69 67 64 64 61 62 70 72 70 69 69 69 71 75 79 74 69 79 74 67 60 54 58 50 53 52 48 45 48 45 51
80 92 91 91 88 85 78 89 80 74 74 71 72 69 66 64 56 57 58 60 62 65 67 74 77 72 75 78 74 71 76 82 75 65 54 56 53 57 56 55 48 46 50
88 96 91 88 83 87 88 78 70 63 62 73 74 74 57 47 51 51 54 59 64 69 68 75 74 83 81 83 82 66 71 71 70 71 60 56 55 47 54 60 58 54 54
96 94 93 92 94 92 76 69 66 71 77 79 71 50 49 52 54 52 55 61 68 74 76 83 86 87 87 89 86 83 73 70 68 68 72 65 60 56 56 59 62 63 56
94 95 97 92 79 77 74 73 71 66 61 55 54 53 55 60 60 53 56 61 65 74 82 83 84 86 88 88 89 84 73 70 68 69 75 73 69 61 58 57 60 62 64
Wind_Speed
13 15 20 20 20 19 17 16 17 19 20 21 21 22 22 22 20 18 17 16 16 18 18 18 17 17 17 17 16 14 12 11 10 11 13 16 17 17 18 18 14 11 16
17 16 21 21 20 19 18 17 18 19 20 21 21 21 21 20 19 17 17 16 17 18 19 18 18 17 17 17 15 13 12 8 7 8 14 16 17 17 18 18 16 13 15
15 16 18 22 22 20 19 18 18 19 20 21 21 20 20 20 19 17 16 16 17 18 18 17 16 17 17 16 14 16 14 11 9 7 12 5 7 17 18 17 16 15 15
16 16 18 25 22 20 19 19 19 19 20 20 21 20 19 19 19 18 17 16 16 18 17 16 15 16 16 15 16 19 20 18 16 10 5 4 9 16 17 17 17 16 15
12 15 17 22 22 20 19 18 18 18 18 20 20 19 20 20 20 19 17 15 16 16 15 14 13 14 14 14 16 17 15 14 12 8 4 5 5 12 15 15 13 15 15
9 14 17 22 22 21 20 19 18 17 18 19 19 18 20 20 20 18 16 15 16 14 13 12 12 12 13 14 15 16 13 12 10 7 6 6 5 12 15 15 14 14 14
10 12 15 17 22 22 19 17 16 16 17 17 18 18 18 18 19 17 15 14 13 12 10 10 11 11 11 12 14 17 15 10 6 6 5 5 5 12 13 13 12 12 13
9 12 16 23 22 20 16 15 14 15 16 16 17 17 17 17 16 15 13 12 10 9 7 7 8 9 10 10 11 14 13 10 7 6 6 5 8 11 12 12 13 12 12
10 15 13 14 22 15 11 13 12 14 15 15 15 16 15 14 14 13 12 10 9 7 5 5 8 6 7 10 9 10 9 11 6 4 4 3 7 11 11 13 13 14 14
14 13 11 12 10 11 7 12 13 13 13 13 13 12 12 12 12 11 10 9 8 5 3 5 6 5 7 7 8 9 11 11 6 5 2 2 9 12 12 14 15 16 16
10 0 8 11 8 5 8 8 10 11 12 12 11 11 8 4 5 7 6 7 6 2 1 6 8 10 7 9 8 8 9 4 5 3 2 5 8 11 13 15 16 17 17
16 9 8 8 9 7 6 5 4 6 4 4 5 5 4 4 4 3 3 5 2 7 8 9 9 9 8 4 4 7 3 4 4 3 1 4 7 9 10 12 14 14 15
10 11 10 6 9 6 6 4 3 3 3 3 5 4 3 3 3 4 3 3 3 7 4 6 5 4 6 5 5 4 5 4 3 1 1 5 7 7 8 10 12 12 12
9 11 9 7 8 5 5 4 4 4 4 3 4 7 6 3 4 4 3 4 4 3 5 4 3 5 6 6 6 6 6 5 3 2 2 1 3 5 6 7 10 10 10
8 8 10 11 9 5 5 4 4 5 4 4 5 5 5 5 4 4 4 4 3 3 4 5 5 4 6 6 6 6 6 6 6 3 2 5 4 1 4 7 8 8 9
10 12 9 8 6 7 5 6 5 4 5 4 4 4 6 4 5 4 4 4 4 4 4 4 5 5 5 4 5 6 6 5 5 5 3 3 3 4 7 7 6 6 6
11 11 7 8 8 8 8 7 5 4 5 4 4 5 6 5 6 5 4 5 4 4 6 5 4 4 5 4 6 6 5 6 6 6 4 3 3 8 7 6 6 6 6
11 9 7 9 9 11 10 6 5 4 4 4 3 4 5 6 7 6 5 5 4 5 5 4 4 4 4 4 3 4 5 5 6 6 5 6 2 3 3 5 6 7 8
16 13 8 10 10 11 9 6 5 6 5 4 4 4 4 6 6 6 4 4 6 5 4 4 4 3 3 3 3 3 3 4 4 4 8 8 6 3 3 9 8 8 8
16 12 9 10 11 10 6 6 4 4 4 4 4 4 6 5 8 7 5 6 5 4 4 4 5 4 1 1 2 3 2 3 4 5 5 6 6 7 4 4 2 3 3
10 14 14 14 11 10 6 5 3 4 3 3 3 6 6 6 6 7 5 5 3 4 4 3 1 2 3 3 2 3 3 4 5 4 4 5 6 5 7 6 4 3 4
16 12 11 13 13 10 7 3 3 4 2 4 3 5 6 7 6 6 5 5 6 4 5 3 3 1 1 3 2 2 3 5 4 3 4 4 6 4 5 5 6 5 3
15 13 13 13 12 7 8 4 4 5 4 3 2 3 3 6 6 7 7 6 5 4 3 1 0 3 1 2 3 4 1 2 1 3 3 2 4 3 3 4 5 5 4
15 9 11 11 11 7 7 7 11 8 8 4 3 3 4 7 7 7 6 6 5 3 3 2 1 2 3 1 0 2 1 4 3 3 3 2 3 3 4 2 3 3 4
12 12 11 9 6 6 7 8 8 7 3 4 4 7 6 6 6 5 6 5 5 3 3 4 5 5 3 2 1 1 1 1 1 2 2 3 2 2 1 1 2 2 3
9 9 7 8 4 6 7 6 8 11 9 8 5 5 4 4 4 5 6 6 5 4 3 4 4 5 3 1 1 1 2 2 3 2 2 3 3 4 2 2 3 4 4
Wind_Direction
157 140 129 123 118 119 115 112 112 108 105 102 100 98 96 96 95 93 90 89 84 81 78 72 66 60 56 53 50 46 47 56 59 57 61 58 51 51 46 43 47 40 41
143 143 129 122 121 121 120 118 113 111 109 105 103 102 102 100 99 95 94 90 87 82 75 69 64 58 54 51 41 32 31 54 71 85 75 61 58 50 46 43 40 41 40
137 129 125 125 127 126 123 121 116 113 110 109 109 106 104 103 100 98 94 93 90 84 78 71 66 61 52 48 34 27 34 75 94 112 95 95 70 57 50 45 41 37 37
139 141 137 135 132 127 125 121 118 117 116 114 112 109 106 106 104 102 100 95 91 89 81 72 59 53 49 41 33 32 56 59 61 75 68 64 67 62 54 43 37 36 34
138 138 138 128 122 125 121 119 116 118 119 118 112 112 111 110 108 106 102 101 99 94 91 80 62 45 33 34 47 37 53 67 73 73 53 62 66 65 62 55 45 36 32
140 138 130 127 126 124 119 120 127 127 125 121 116 117 115 114 112 110 110 107 104 100 89 75 60 42 35 27 38 52 29 65 67 56 49 50 68 74 73 61 50 44 36
126 133 129 127 121 116 116 121 131 127 121 119 119 120 123 121 119 114 113 111 110 101 88 75 56 33 28 32 25 39 32 63 80 72 55 38 50 61 63 60 56 48 36
125 116 110 107 103 109 129 128 135 126 122 125 126 130 128 126 123 119 117 112 109 99 92 76 63 45 12 20 31 46 33 92 71 53 35 16 38 53 53 53 44 41 36
42 81 89 123 115 130 141 143 125 130 135 136 137 137 134 129 126 127 125 121 116 119 101 77 62 46 29 10 21 52 58 87 71 53 38 2 36 54 51 53 46 38 32
53 90 120 96 115 141 142 137 148 146 141 143 140 141 136 136 134 133 131 137 133 116 90 48 51 51 33 19 74 51 78 100 86 80 36 344 57 58 62 63 57 51 45
134 51 141 125 132 169 150 150 148 143 149 144 139 133 124 138 132 132 149 135 93 79 350 26 18 22 46 24 45 73 86 113 97 75 38 59 62 61 65 69 68 63 57
150 177 176 160 166 164 158 149 153 144 144 145 133 134 135 114 87 114 74 97 125 43 8 43 62 55 47 39 26 47 61 75 109 121 138 94 86 84 87 84 78 74 68
143 175 189 185 168 177 156 152 167 133 106 113 132 125 110 104 87 93 78 55 77 60 57 60 46 48 60 52 37 45 37 48 31 6 205 129 111 112 107 105 96 84 79
162 180 200 196 175 187 161 164 150 117 112 88 93 111 117 114 97 84 95 80 80 84 82 75 71 68 59 54 58 52 36 27 25 342 332 48 136 136 136 124 109 101 79
185 200 207 179 173 171 149 146 103 111 122 115 103 109 118 112 99 103 100 94 90 82 86 70 70 60 54 41 41 41 37 34 28 10 346 313 316 189 127 127 115 102 95
203 194 191 166 166 157 126 89 103 111 100 93 87 97 90 106 111 103 96 87 71 66 64 78 70 62 51 39 26 22 33 34 21 39 3 321 256 144 147 148 133 106 87
180 174 177 153 154 128 109 116 115 117 103 95 104 110 118 112 106 107 102 74 55 69 76 63 53 58 49 27 30 29 33 4 11 13 25 323 193 172 150 131 106 97 75
166 174 164 155 139 127 129 126 118 114 106 109 115 103 113 105 109 101 94 78 71 74 70 64 45 43 40 37 13 15 14 17 16 15 19 22 22 26 87 75 96 87 73
175 179 152 152 140 127 130 132 127 140 138 140 141 125 131 112 117 98 87 86 76 69 55 47 49 64 42 10 327 29 31 26 36 19 32 33 40 48 52 63 67 78 70
178 169 146 155 142 141 132 117 140 137 129 135 132 130 130 102 102 103 90 82 83 81 57 62 55 25 28 345 358 23 338 58 46 43 43 38 38 37 41 49 19 335 78
169 165 162 155 158 148 151 148 141 150 146 106 118 129 108 104 104 96 93 100 111 86 81 59 68 42 354 7 46 349 334 58 78 47 34 47 32 31 32 18 9 29 3
171 175 166 166 166 170 163 139 147 134 126 121 128 113 121 109 104 101 106 78 59 63 43 34 48 28 21 34 103 115 13 338 357 21 70 58 36 33 28 15 32 26 10
173 169 169 173 174 168 162 125 84 75 69 84 139 127 109 108 106 101 94 92 82 74 54 2 219 133 163 32 65 139 31 231 307 313 31 46 41 52 27 8 13 13 25
172 158 165 171 170 181 159 159 163 165 163 168 149 123 98 90 89 94 98 90 91 100 61 354 65 129 124 145 358 55 127 164 187 302 307 347 7 27 6 17 357 354 354
163 167 161 168 180 165 180 169 163 142 128 115 112 109 96 84 97 99 96 96 79 60 53 75 81 84 78 120 149 267 287 220 173 156 248 296 324 273 246 239 278 299 298
170 164 155 148 160 167 160 159 148 133 130 127 120 117 115 103 79 67 71 60 53 40 84 110 111 106 116 152 216 203 178 207 245 208 253 265 231 283 261 294 324 314 307